Location: Hartha
(51.1030°N, 12.9600°E)
Time: 03:57:58
(UTC+02:00)

Daily predictions for brighter satellites

Satellite Brightness Start Highest point End
(mag) Time Altitude Azimuth Time Altitude Azimuth Time Altitude Azimuth
Cosmos 1125 Rocket 3.8 00:04:17 34° SSE 00:06:09 51° ESE 00:11:12 10° NNE
ATLAS CENTAUR R/B 1.0 00:10:15 55° S 00:10:49 65° SE 00:14:37 10° NE
Cosmos 1607 3.9 00:06:38 18° SSW 00:11:41 78° SE 00:18:12 10° NE
COSMOS 2487 3.6 00:08:51 10° N 00:11:58 33° ENE 00:12:53 28° E
Cosmos 1821 Rocket 4.0 00:07:53 10° N 00:14:21 83° E 00:17:36 31° SSE
Cosmos 1943 Rocket 3.4 00:19:05 10° WSW 00:24:21 40° NW 00:29:36 10° NNE
Meteor 1-13 Rocket 4.3 00:22:21 35° SSE 00:24:38 65° E 00:30:07 10° NNE
Spot 4 4.3 00:30:35 34° SSW 00:32:23 52° W 00:37:09 10° NNW
Cosmos 1867 3.7 00:28:40 15° SW 00:33:10 75° NW 00:38:42 10° NE
ISS -3.7 00:29:58 10° W 00:33:21 79° N 00:36:45 10° E
Cosmos 1656 Rocket 3.7 00:30:07 24° SW 00:33:29 79° WNW 00:39:05 10° NNE
Cosmos 2221 Rocket 4.3 00:40:00 35° SE 00:41:13 43° E 00:45:33 10° NNE
Cosmos 1733 3.4 00:39:20 10° N 00:43:06 60° ENE 00:43:52 48° SE
Cosmos 1400 Rocket 4.0 00:41:02 10° N 00:44:49 34° ENE 00:46:16 26° ESE
Cosmos 2369 Rocket 3.1 00:40:29 10° SW 00:45:48 47° NW 00:51:18 10° NNE
Cosmos 724 4.4 00:44:33 31° SSW 00:47:39 70° SE 00:53:53 10° NE
Cosmos 2344 4.3 00:38:46 10° NW 00:47:49 70° SW 00:56:38 22° SSE
ALOS 2 2.8 00:47:43 42° SSW 00:48:55 58° W 00:53:16 10° NNW
BREEZE-M DEB (TANK) 4.4 00:38:38 10° WNW 00:51:14 41° SW 00:52:48 34° S
SeaSat 1 3.9 00:47:31 10° NE 00:51:18 22° ESE 00:52:12 21° ESE
Okean 3 3.5 00:51:44 46° SSW 00:52:56 75° WNW 00:57:10 10° N
SL-27 R/B 4.0 00:50:29 10° NW 00:53:01 22° W 00:53:01 22° W
RESURS DK-1 4.1 00:50:15 10° WNW 00:53:13 19° WSW 00:53:36 19° WSW
USA 81 4.5 00:49:49 10° N 00:55:02 55° E 00:57:21 31° SE
Lacrosse 5 2.0 00:54:18 42° S 00:55:28 50° SE 01:00:24 10° ENE
Cosmos 1356 Rocket 4.1 00:52:33 10° NNW 00:56:41 46° W 00:57:43 38° SW
NOSS 2-1 (E) 4.3 00:53:08 10° NW 00:57:58 60° SW 01:00:42 33° SSE
Nimbus 7 Rocket 4.4 00:52:33 10° NNE 00:58:29 77° ESE 01:01:10 35° S
Cosmos 1269 Rocket 4.0 00:55:54 10° NNW 01:01:13 74° WSW 01:03:10 39° S
Cosmos 1300 Rocket 3.5 00:57:23 10° NNW 01:01:48 72° W 01:02:56 48° SSW
Nadezhda 3 Rocket 4.2 00:59:44 28° SSW 01:03:04 64° WNW 01:09:14 10° N
Cosmos 2251 Rocket 4.5 01:01:09 10° NNW 01:06:09 43° ENE 01:09:56 17° ESE
SL-16 R/B 4.3 01:05:53 10° ESE 01:10:54 26° NE 01:15:56 10° N
USA 215 3.3 01:04:22 10° ESE 01:10:55 82° NNE 01:17:30 10° WNW
Aureole 2 4.3 01:09:09 10° NNW 01:12:01 63° W 01:12:01 63° W
Thor Agena Rocket 3.5 01:08:16 10° NNE 01:13:35 80° ESE 01:15:40 38° S
Sich 1 Rocket 4.1 01:11:03 10° NNW 01:15:27 48° W 01:16:39 38° SW
Cosmos 1805 3.7 01:14:06 10° NNW 01:17:51 46° W 01:18:27 42° WSW
COSMOS 2455 2.8 01:12:08 10° NW 01:18:12 89° SW 01:21:45 26° SE
Cosmos 1726 3.1 01:16:09 10° N 01:19:41 40° ENE 01:20:43 32° ESE
Cosmos 1605 Rocket 4.0 01:14:15 10° N 01:20:33 88° W 01:23:40 33° S
Okean 2 4.2 01:21:02 33° SE 01:22:06 40° E 01:26:01 10° NNE
Okean 2 Rocket 3.4 01:22:47 10° NNW 01:27:04 51° W 01:28:09 41° SW
Cosmos 2151 Rocket 3.7 01:24:39 10° NNW 01:29:08 63° W 01:30:21 44° SSW
Cosmos 2227 Rocket 2.6 01:27:43 10° NNW 01:33:21 63° NE 01:37:43 17° SE
PSLV R/B 3.5 01:30:52 10° NNE 01:35:14 78° ESE 01:36:26 46° S
Cosmos 2297 Rocket 2.2 01:29:52 10° NNW 01:35:35 80° ENE 01:39:09 24° SE
Cosmos 1766 3.9 01:32:36 10° NNW 01:36:21 42° W 01:36:58 39° WSW
EO 1 Delta rocket 4.4 01:34:38 35° S 01:37:07 74° W 01:43:54 10° NNW
Cosmos 1656 4.3 01:40:31 30° SSE 01:42:33 42° ESE 01:47:45 10° NE
Timation 2 Rocket 3.9 01:39:29 10° NNW 01:45:30 82° ENE 01:49:54 19° SE
COSMOS 2487 4.2 01:44:03 10° NW 01:46:11 20° W 01:46:11 20° W
Cosmos 1953 3.9 01:44:33 10° N 01:48:07 30° ENE 01:50:30 17° ESE
TSX-5 3.8 01:46:32 10° NNW 01:49:55 69° NE 01:51:40 30° SE
ATLAS CENTAUR R/B 3.3 01:46:55 10° W 01:50:02 24° NNW 01:53:17 10° NNE
Cosmos 1378 Rocket 3.5 01:53:20 43° SSW 01:54:40 78° WNW 01:59:00 10° N
Cosmos 1975 Rocket 4.1 01:54:16 25° SE 01:56:04 35° E 02:00:01 10° NNE
Cosmos 1470 2.7 01:52:10 10° NNW 01:56:06 71° W 01:57:01 49° SSW
Helios 1B rocket 4.5 01:54:40 10° NE 01:57:41 19° E 01:59:43 14° SE
Cosmos 371 Rocket 3.9 01:56:11 31° SSE 01:58:02 45° ESE 02:02:41 10° NE
ADEOS II 4.4 01:55:21 10° NE 01:58:07 14° E 02:00:53 10° ESE
Meteor 2-10 4.2 01:54:23 10° NNW 01:59:38 60° W 02:01:41 35° SSW
Cosmos 2100 Rocket 4.1 01:56:37 10° N 02:02:59 81° E 02:06:59 24° SSE
YAOGAN 11 3.9 02:03:01 39° S 02:04:34 80° WSW 02:08:54 10° NNW
Meteor 2-20 4.5 02:02:38 31° SSW 02:05:49 79° W 02:12:01 10° N
Meteor 1-21 4.3 02:03:15 32° S 02:06:09 85° E 02:11:57 10° NNE
Cosmos 1802 Rocket 4.2 02:02:38 10° N 02:08:47 69° ENE 02:13:08 20° SSE
Cosmos 1842 3.9 02:08:59 35° WSW 02:10:04 44° WNW 02:13:49 10° N
ISS -3.9 02:06:50 10° W 02:10:11 65° SSW 02:13:33 10° ESE
CZ-4 R/B 3.9 02:07:28 10° NNE 02:12:19 72° ESE 02:14:25 33° S
BREEZE-M DEB (TANK) 4.2 02:10:58 32° SSW 02:12:57 51° SE 02:25:50 10° ENE
Lacrosse 4 Rocket 2.9 02:14:12 23° SE 02:15:41 28° ESE 02:19:28 10° NE
Resurs 1-4 Rocket 3.0 02:13:15 10° NNE 02:18:13 40° E 02:21:24 20° SSE
EO 1 Del DPAF 4.0 02:15:36 10° N 02:19:07 40° WNW 02:20:18 30° WSW
Okean 1 Rocket 3.8 02:16:09 10° NNW 02:20:14 39° W 02:21:27 32° SW
Cosmos 1400 Rocket 4.1 02:17:45 10° NW 02:21:08 25° W 02:21:51 24° WSW
CZ-2D R/B 3.0 02:16:15 10° NNE 02:21:22 41° E 02:24:40 20° SSE
APEX 3.8 02:18:13 10° NNW 02:22:40 89° ENE 02:27:34 13° SSE
Cosmos 2263 Rocket 3.8 02:18:08 10° NNW 02:23:20 35° NE 02:28:30 10° ESE
Cosmos 2219 3.4 02:18:59 10° NW 02:24:33 56° WSW 02:27:34 27° S
Cosmos 614 Rocket 4.0 02:22:38 10° NNW 02:27:41 62° WSW 02:30:18 28° S
Cosmos 1758 3.7 02:24:19 10° NNW 02:28:17 49° W 02:29:29 36° SW
SeaSat 1 2.5 02:24:19 10° NNE 02:29:15 72° NW 02:31:58 27° SW
MOZ.5/SAFIR/RUBIN 5/SL-8 3.7 02:28:24 30° S 02:30:40 72° WSW 02:35:21 10° NNW
Cosmos 1315 Rocket 3.0 02:27:35 10° NNW 02:31:31 55° W 02:32:50 37° SSW
Cosmos 1727 Rocket 4.3 02:29:01 26° SW 02:32:39 58° WNW 02:38:56 10° N
Cosmos 1707 3.0 02:34:02 35° SW 02:35:17 53° WNW 02:39:05 10° N
Cosmos 1140 Rocket 3.6 02:30:36 10° NNW 02:35:51 80° ENE 02:40:44 12° SSE
USA 276 1.9 02:36:06 42° WSW 02:37:00 73° S 02:40:11 10° E
Lacrosse 5 2.4 02:33:25 10° W 02:38:27 59° NNW 02:43:30 10° ENE
Helios 1A 3.8 02:43:30 29° SW 02:44:41 35° W 02:48:31 10° NNW
Cosmos 1908 3.1 02:41:10 10° NNW 02:45:05 83° W 02:47:00 29° S
Cosmos 1544 Rocket 3.6 02:41:19 10° N 02:45:46 84° E 02:48:38 22° SSE
UNK 3.7 02:44:37 20° SSE 02:47:50 88° ENE 02:52:27 10° NNW
USA 281 3.2 02:42:33 15° SSE 02:48:08 67° WSW 02:54:43 10° NNW
Cosmos 2251 Rocket 4.3 02:43:39 10° NW 02:48:21 34° WSW 02:50:22 25° SW
Meteor 2-11 Rocket 4.5 02:42:49 10° NNW 02:48:57 67° W 02:53:06 21° S
MINOTAUR 4 R/B 4.4 02:47:34 18° SSE 02:50:03 62° ENE 02:53:36 10° N
Cosmos 1697 Rocket 2.7 02:49:39 25° SSW 02:53:02 74° ESE 02:58:40 10° NNE
SL-16 R/B 2.5 02:48:45 16° S 02:53:57 77° WSW 03:00:15 10° NNW
USA 215 3.6 02:48:10 10° SSE 02:54:19 43° SW 03:00:30 10° WNW
Cosmos 1726 3.9 02:51:59 10° NW 02:54:33 18° W 02:55:09 17° W
Cosmos 1459 Rocket 4.3 02:48:35 10° NNW 02:54:35 50° W 02:58:18 22° SSW
Cosmos 304 Rocket 3.8 02:52:37 26° SSW 02:55:19 79° ESE 03:00:09 10° NNE
Cosmos 1455 Rocket 3.3 02:51:09 10° NNW 02:55:23 51° W 02:57:25 27° SSW
Cosmos 1725 Rocket 4.0 02:50:33 10° NNW 02:56:49 78° W 03:01:43 17° S
Meteor 1-16 Rocket 4.4 02:55:23 10° NNW 03:01:13 59° W 03:05:13 20° S
Cosmos 2233 Rocket 4.1 02:56:03 10° N 03:02:18 80° E 03:08:27 10° SSE
COSMOS 2455 4.2 02:59:12 10° WNW 03:03:22 20° WSW 03:04:51 18° SW
Cosmos 2360 4.3 03:00:05 22° SSW 03:03:50 75° ESE 03:09:34 10° NNE
Cosmos 1980 Rocket 2.7 03:03:00 19° S 03:06:59 53° ESE 03:12:29 10° NE
Cosmos 2016 Rocket 4.2 03:02:43 10° NNW 03:08:49 56° W 03:13:14 19° SSW
Cosmos 1536 Rocket 4.0 03:06:18 17° S 03:09:32 59° E 03:13:57 10° NNE
Cosmos 1190 Rocket 4.0 03:06:20 10° NNW 03:11:31 65° WSW 03:16:28 11° S
Cosmos 1674 3.1 03:11:34 25° SW 03:13:26 48° WNW 03:17:09 10° N
IDEFIX/ARIANE 42P 4.1 03:09:52 10° NNE 03:14:33 31° E 03:19:13 10° SSE
Cosmos 2227 Rocket 3.2 03:12:22 10° NW 03:17:01 27° WSW 03:19:30 19° SW
Cosmos 2297 Rocket 3.6 03:14:56 10° NW 03:18:58 20° W 03:20:54 17° SW
Cosmos 1626 2.1 03:17:15 24° SSW 03:19:20 74° WNW 03:23:02 10° N
Meteor 2-5 Rocket 4.1 03:15:59 12° S 03:21:06 60° E 03:26:36 10° NNE
Aureole 2 Rocket 1.9 03:18:45 10° NNW 03:21:26 74° ENE 03:23:57 11° SSE
GP-B 3.2 03:19:40 10° N 03:24:08 78° E 03:28:06 13° S
Cosmos 1953 3.5 03:21:02 10° NNW 03:24:26 28° W 03:26:10 20° SW
ATLAS CENTAUR R/B 4.2 03:28:36 10° NNW 03:30:15 12° N 03:31:57 10° NNE
Cosmos 407 Rocket 4.2 03:25:56 10° NW 03:30:48 37° WSW 03:34:38 15° SSW
Helios 1B rocket 2.8 03:29:11 10° N 03:33:13 51° WNW 03:36:01 18° SW
Cosmos 1975 Rocket 4.3 03:31:24 16° WSW 03:33:59 28° WNW 03:37:45 10° N
Cosmos 2369 3.8 03:30:04 18° SW 03:34:30 77° WNW 03:40:16 10° NNE
Cosmos 2278 3.9 03:30:07 16° SSW 03:34:43 73° ESE 03:40:26 10° NNE
Cosmos 2082 4.4 03:29:44 10° NW 03:34:52 35° WSW 03:39:26 13° SSW
Cosmos 676 Rocket 4.0 03:30:53 10° NNW 03:36:07 66° WSW 03:41:21 10° S
ADEOS II 2.1 03:33:20 10° NNE 03:38:38 84° ESE 03:43:26 13° SSW
Meteor 2-10 Rocket 4.0 03:33:35 10° N 03:39:19 70° ENE 03:44:48 10° SSE
ARGOS Delta rocket 3.9 03:35:14 10° N 03:39:55 69° WNW 03:44:02 15° SSW
Cosmos 2285 Rocket 4.1 03:34:58 15° SSW 03:40:27 87° ESE 03:46:57 10° NNE
CBERS-1 4.3 03:40:26 10° NNE 03:45:33 67° ESE 03:50:38 10° S
Meteor 1-29 3.1 03:42:41 10° N 03:46:02 58° WNW 03:48:31 17° SSW
SL-08 R/B 4.4 03:41:42 10° SE 03:46:09 47° ENE 03:50:35 10° N
SL-16 R/B 3.6 03:41:23 10° SSE 03:46:23 33° ESE 03:51:25 10° NE
ISS -2.3 03:44:07 10° W 03:46:34 19° SW 03:49:00 10° S
Cosmos 1300 3.0 03:43:26 10° NNW 03:47:09 49° W 03:50:25 13° SSW
Cosmos 1025 Rocket 3.9 03:44:11 16° SW 03:47:13 37° WNW 03:51:19 10° N
Aureole 1 Rocket 3.9 03:44:47 10° NNW 03:47:59 42° ENE 03:51:52 10° SE
Cosmos 1624 Rocket 4.1 03:44:42 15° SSW 03:49:07 71° WNW 03:54:29 10° NNE
SL-14 R/B 3.6 03:47:32 16° SSW 03:50:30 52° WNW 03:54:26 10° N
Cosmos 2084 3.5 03:46:46 10° NW 03:51:12 85° SW 03:55:44 10° SE
Lacrosse 4 Rocket 2.2 03:50:29 13° WSW 03:54:12 47° NW 03:58:28 10° NNE
Resurs 1-4 Rocket 3.0 03:53:13 10° N 03:58:01 37° WNW 04:02:29 12° SW
CZ-4C R/B 3.4 03:54:13 10° S 03:58:24 70° WSW 04:02:25 10° NNW
Cosmos 1954 Rocket 4.5 03:55:40 10° NW 04:00:37 42° WSW 04:05:35 10° S
Cosmos 1455 3.2 03:57:24 10° N 04:01:10 50° ENE 04:04:55 10° SSE
CZ-2D R/B 3.0 03:56:27 10° N 04:01:22 37° WNW 04:05:59 11° SW
AQUA 4.4 03:58:01 10° N 04:02:32 44° WNW 04:06:44 12° SW
SeaSat 1 4.5 04:02:39 10° N 04:06:06 19° NW 04:09:32 10° W
Cosmos 2263 Rocket 2.4 04:02:00 10° NW 04:07:30 53° WSW 04:12:59 10° S
NPP 4.4 04:02:45 10° N 04:07:44 39° WNW 04:12:38 10° SW
Cosmos 1844 Rocket 3.9 04:03:03 10° NNW 04:08:29 47° NE 04:13:55 10° SE
Cosmos 1452 Rocket 3.8 04:03:34 10° S 04:08:48 66° ESE 04:14:03 10° NNE
Iridium 2 4.4 04:05:40 12° SW 04:08:51 38° W 04:12:28 10° N
Cosmos 405 3.5 04:05:50 10° NNW 04:09:10 40° W 04:12:27 10° SSW
Cosmos 2056 Rocket 4.0 04:06:52 11° SW 04:11:32 49° WNW 04:16:33 10° NNE
Cosmos 2322 Rocket 3.3 04:06:21 10° S 04:11:36 40° ESE 04:16:55 10° NE
Cosmos 1340 2.9 04:08:23 11° SSW 04:11:50 53° WNW 04:15:32 10° N
Cosmos 1891 Rocket 4.4 04:06:21 10° NNW 04:12:25 75° W 04:18:26 10° S
USA 276 2.3 04:10:01 10° W 04:13:07 52° SSW 04:16:13 10° ESE
Cosmos 1892 Rocket 4.0 04:10:31 10° S 04:14:47 61° E 04:19:05 10° NNE
Cosmos 292 Rocket 3.9 04:12:45 10° SSW 04:17:37 85° ESE 04:22:31 10° NNE
NOSS 3-2 (A) 4.1 04:14:29 10° SSW 04:19:54 49° ESE 04:26:07 10° NE
ADEOS Rocket 3.8 04:12:33 10° S 04:19:56 52° W 04:27:32 10° NNW
Cosmos 2228 3.3 04:15:58 10° NNW 04:20:05 47° W 04:24:13 10° SSW
Lacrosse 5 3.1 04:17:15 10° WNW 04:22:07 43° N 04:26:59 10° ENE
Meteor 1-28 Rocket 4.2 04:21:18 10° SSW 04:24:30 27° W 04:27:45 10° NW
CZ-3B R/B 3.3 04:12:04 10° W 04:24:50 68° NNW 04:28:21 10° ENE
Cosmos 1346 Rocket 3.0 04:21:16 10° S 04:25:09 72° E 04:29:05 10° NNE
Cosmos 1850 Rocket 4.1 04:22:04 10° NNW 04:27:22 61° WSW 04:32:37 10° S
MSX 4.0 04:21:40 10° NNE 04:27:30 84° ESE 04:33:17 10° SSW
Cosmos 1726 Rocket 3.7 04:24:41 10° NNW 04:29:01 58° W 04:33:20 10° S
Cosmos 1606 Rocket 4.0 04:25:58 10° NNW 04:30:12 45° W 04:34:25 10° SSW
Cosmos 2360 Rocket 3.6 04:27:21 10° S 04:32:26 35° ESE 04:37:32 10° NE
Meteor 1-24 Rocket 4.0 04:27:56 10° SSW 04:33:13 49° WNW 04:38:26 10° N
Cosmos 1703 4.4 04:29:53 10° SSE 04:33:34 44° E 04:37:17 10° NNE
Cosmos 2058 Rocket 3.1 04:29:03 10° NNW 04:33:36 82° W 04:38:06 10° S
IRS-1D 4.2 04:28:57 10° N 04:34:02 45° WNW 04:39:06 10° SW
USA 238 DEB 4.3 04:29:18 10° SSW 04:35:37 51° ESE 04:42:15 10° NE
USA 238 4.3 04:29:26 10° SSW 04:35:44 51° ESE 04:42:21 10° NE
